Location: Clarion
(42.7316°N, 93.7330°W)
Time: 21:37:13
(UTC+00:00)

IRS-1C Rocket - Pass Details

Date: 22 April 2026
Orbit: 799 x 804 km, 98.7° (Epoch: 12 May)

Event Time Altitude Azimuth Distance (km) Brightness Sun altitude
Exits shadow 03:42:11 69° 108° (ESE) 861 4.0 -25.1°
Maximum altitude 03:42:34 72° 73° (ENE) 846 4.0 -25.1°
Drops below altitude 10° 03:47:50 10° 350° (N) 2,393 7.3 -25.8°
Sets 03:50:11 0° 349° (N) 3,328 8.3 -26.0°
